Tracking 19242 objects as of 16-Aug-2018
HD Live streaming from Space Station
objects crossing your sky now

METEOR 3-6

Track METEOR 3-6 now!
10-day predictions
METEOR 3-6 is classified as:


NORAD ID: 22969
Int'l Code: 1994-003A
Perigee: 1,191.7 km
Apogee: 1,215.1 km
Inclination: 82.6 °
Period: 109.3 minutes
Semi major axis: 7574 km
RCS: 4.6195 m2 (large)
Launch date: January 25, 1994
Source: Commonwealth of Independent States (former USSR) (CIS)
Launch site: PLESETSK MISSILE AND SPACE COMPLEX (PKMTR)
aabbcc
Your satellite tracking list
Your tracking list is empty




NASA's NSSDC Master Catalog

Two Line Element Set (TLE):
1 22969U 94003A   18228.17479972  .00000044  00000-0  81077-4 0  9996
2 22969  82.5636 307.5785 0015450 159.6193 200.5549 13.16987713180486
Source of the keplerian elements: AFSPC